| time (UTC) | temp C | wind direction | speed KPH | gust KPH | rain 1hr cm | rain 24hr cm | rain mn cm | humidity % | barometer mb |
| 20260904021345 | 29 | 205 | 0.0 | 1.6 | 0.00 | 0.00 | 0.00 | 91 | 1012.1 |
| 20260904015841 | 29 | 205 | 0.0 | 6.4 | 0.00 | 0.00 | 0.00 | 90 | 1012.3 |
| 20260904015043 | 29 | 210 | 1.6 | 6.4 | 0.00 | 0.00 | 0.00 | 90 | 1012.3 |
| 20260904013534 | 29 | 175 | 1.6 | 9.7 | 0.00 | 0.00 | 0.00 | 89 | 1012.2 |
| 20260904011326 | 29 | 221 | 1.6 | 8.0 | 0.00 | 0.00 | 0.00 | 89 | 1012.2 |
| 20260904005825 | 30 | 178 | 0.0 | 6.4 | 0.00 | 0.00 | 0.00 | 88 | 1012.2 |
| 20260904004324 | 30 | 198 | 0.0 | 6.4 | 0.00 | 0.00 | 0.00 | 88 | 1012.6 |
| 20260904002810 | 30 | 186 | 1.6 | 9.7 | 0.00 | 0.00 | 0.00 | 87 | 1012.8 |
| 20260904002013 | 30 | 194 | 0.0 | 8.0 | 0.00 | 0.00 | 0.00 | 87 | 1012.9 |
| 20260903235807 | 30 | 232 | 0.0 | 9.7 | 0.00 | 0.00 | 0.00 | 87 | 1012.6 |
| 20260903234307 | 30 | 186 | 0.0 | 0.0 | 0.00 | 0.00 | 0.00 | 87 | 1012.3 |
| 20260903232806 | 31 | 207 | 0.0 | 0.0 | 0.00 | 0.00 | 0.00 | 86 | 1012.1 |
| 20260903231306 | 31 | 191 | 0.0 | 0.0 | 0.00 | 0.00 | 0.00 | 85 | 1012.0 |
| 20260903225806 | 31 | 142 | 0.0 | 0.0 | 0.00 | 0.00 | 0.00 | 84 | 1012.0 |
| 20260903225003 | 31 | 179 | 0.0 | 11.3 | 0.00 | 0.00 | 0.00 | 84 | 1011.8 |
| 20260903223500 | 31 | 174 | 3.2 | 11.3 | 0.00 | 0.00 | 0.00 | 83 | 1011.7 |
| 20260903221250 | 32 | 143 | 1.6 | 12.9 | 0.00 | 0.00 | 0.00 | 83 | 1011.6 |
| 20260903215748 | 32 | 102 | 1.6 | 12.9 | 0.00 | 0.00 | 0.00 | 82 | 1011.8 |
| 20260903214246 | 32 | 205 | 3.2 | 11.3 | 0.00 | 0.00 | 0.00 | 81 | 1011.7 |
| 20260903212744 | 33 | 171 | 4.8 | 12.9 | 0.00 | 0.00 | 0.00 | 80 | 1011.8 |
| 20260903211245 | 33 | 191 | 0.0 | 9.7 | 0.00 | 0.00 | 0.00 | 79 | 1011.8 |
| 20260903205744 | 33 | 175 | 4.8 | 16.1 | 0.00 | 0.00 | 0.00 | 78 | 1012.0 |
| 20260903204244 | 33 | 209 | 4.8 | 16.1 | 0.00 | 0.00 | 0.00 | 74 | 1012.1 |
| 20260903203442 | 33 | 223 | 6.4 | 17.7 | 0.00 | 0.00 | 0.00 | 76 | 1012.2 |
| 20260903201242 | 33 | 238 | 6.4 | 17.7 | 0.00 | 0.00 | 0.00 | 76 | 1012.5 |
| 20260903195740 | 33 | 186 | 1.6 | 11.3 | 0.00 | 0.00 | 0.00 | 75 | 1012.7 |
| 20260903194239 | 32 | 270 | 4.8 | 14.5 | 0.00 | 0.00 | 0.00 | 77 | 1012.9 |
| 20260903192737 | 32 | 241 | 3.2 | 14.5 | 0.00 | 0.00 | 0.00 | 79 | 1013.1 |
| 20260903191236 | 31 | 205 | 3.2 | 12.9 | 0.00 | 0.00 | 0.00 | 80 | 1013.4 |
| 20260903190422 | 32 | 212 | 0.0 | 3.2 | 0.00 | 0.00 | 0.00 | 79 | 1013.6 |
| 20260903184945 | 32 | 213 | 3.2 | 14.5 | 0.00 | 0.00 | 0.00 | 78 | 1013.7 |
| 20260903182732 | 31 | 191 | 0.0 | 0.0 | 0.00 | 0.20 | 0.00 | 80 | 1013.6 |
| 20260903181922 | 31 | 215 | 0.0 | 8.0 | 0.00 | 0.33 | 0.00 | 81 | 1013.7 |
| 20260903175728 | 31 | 198 | 3.2 | 12.9 | 0.00 | 0.33 | 0.00 | 80 | 1013.7 |
| 20260903174221 | 30 | 193 | 3.2 | 11.3 | 0.00 | 0.33 | 0.00 | 82 | 1014.3 |
| 20260903172722 | 30 | 269 | 4.8 | 12.9 | 0.00 | 0.33 | 0.00 | 84 | 1014.8 |
| 20260903171217 | 29 | 236 | 1.6 | 9.7 | 0.00 | 0.33 | 0.00 | 85 | 1015.0 |
| 20260903165711 | 28 | 292 | 1.6 | 9.7 | 0.00 | 0.33 | 0.00 | 89 | 1015.4 |
| 20260903164211 | 28 | 285 | 0.0 | 9.7 | 0.00 | 0.33 | 0.00 | 89 | 1015.5 |
| 20260903162710 | 28 | 270 | 0.0 | 8.0 | 0.00 | 0.33 | 0.00 | 92 | 1015.6 |
| 20260903161158 | 27 | 277 | 1.6 | 12.9 | 0.00 | 0.33 | 0.00 | 93 | 1015.9 |
| 20260903160347 | 27 | 275 | 4.8 | 16.1 | 0.00 | 0.33 | 0.00 | 92 | 1016.5 |
| 20260903154156 | 28 | 290 | 1.6 | 9.7 | 0.00 | 0.33 | 0.00 | 92 | 1016.2 |
| 20260903152656 | 28 | 189 | 1.6 | 9.7 | 0.00 | 0.33 | 0.00 | 93 | 1015.9 |
| 20260903151844 | 27 | 186 | 1.6 | 9.7 | 0.00 | 0.33 | 0.00 | 93 | 1015.8 |
| 20260903145649 | 27 | 124 | 3.2 | 12.9 | 0.00 | 0.33 | 0.00 | 95 | 1015.5 |
| 20260903144149 | 26 | 205 | 3.2 | 11.3 | 0.00 | 0.33 | 0.00 | 97 | 1015.5 |
| 20260903142648 | 26 | 171 | 3.2 | 11.3 | 0.00 | 0.33 | 0.00 | 99 | 1015.5 |
| 20260903141148 | 25 | 146 | 1.6 | 8.0 | 0.00 | 0.33 | 0.00 | 100 | 1015.2 |
| 20260903135648 | 25 | 171 | 1.6 | 6.4 | 0.00 | 0.33 | 0.00 | 100 | 1015.2 |
| 20260903134832 | 25 | 78 | 0.0 | 0.0 | 0.00 | 0.33 | 0.00 | 100 | 1015.3 |
| 20260903132643 | 24 | 49 | 0.0 | 4.8 | 0.00 | 0.33 | 0.00 | 100 | 1015.6 |
| 20260903131128 | 24 | 86 | 3.2 | 8.0 | 0.00 | 0.33 | 0.00 | 100 | 1015.8 |
| 20260903125623 | 23 | 82 | 0.0 | 4.8 | 0.00 | 0.33 | 0.00 | 100 | 1016.3 |
| 20260903124121 | 23 | 84 | 0.0 | 3.2 | 0.00 | 0.33 | 0.00 | 100 | 1016.5 |
| 20260903122604 | 23 | 84 | 0.0 | 4.8 | 0.00 | 0.33 | 0.00 | 100 | 1016.8 |
| 20260903121105 | 23 | 5 | 1.6 | 6.4 | 0.00 | 0.33 | 0.00 | 100 | 1017.0 |
| 20260903115603 | 23 | 71 | 1.6 | 8.0 | 0.00 | 0.33 | 0.00 | 100 | 1016.7 |
| 20260903114054 | 23 | 300 | 1.6 | 8.0 | 0.00 | 0.33 | 0.00 | 100 | 1017.0 |
| 20260903112551 | 23 | 89 | 0.0 | 0.0 | 0.00 | 0.33 | 0.00 | 100 | 1016.1 |
| 20260903111049 | 23 | 117 | 0.0 | 0.0 | 0.00 | 0.33 | 0.00 | 100 | 1015.9 |
| 20260903105548 | 22 | 117 | 0.0 | 0.0 | 0.00 | 0.33 | 0.00 | 100 | 1015.7 |
| 20260903104048 | 22 | 118 | 0.0 | 0.0 | 0.00 | 0.33 | 0.00 | 100 | 1015.1 |
| 20260903102513 | 22 | 118 | 0.0 | 0.0 | 0.00 | 0.33 | 0.00 | 100 | 1014.8 |
| 20260903100958 | 22 | 118 | 0.0 | 0.0 | 0.00 | 0.33 | 0.00 | 100 | 1014.6 |
| 20260903100150 | 22 | 118 | 0.0 | 0.0 | 0.00 | 0.33 | 0.00 | 100 | 1014.8 |
| 20260903093954 | 22 | 118 | 0.0 | 0.0 | 0.00 | 0.33 | 0.00 | 100 | 1014.9 |
| 20260903092451 | 22 | 118 | 0.0 | 0.0 | 0.00 | 0.33 | 0.00 | 100 | 1014.9 |
| 20260903090943 | 22 | 118 | 0.0 | 0.0 | 0.00 | 0.33 | 0.00 | 100 | 1014.9 |
| 20260903085440 | 22 | 118 | 0.0 | 0.0 | 0.00 | 0.33 | 0.00 | 100 | 1014.9 |
| 20260903083934 | 22 | 118 | 0.0 | 0.0 | 0.00 | 0.33 | 0.00 | 100 | 1014.8 |
| 20260903082425 | 22 | 118 | 0.0 | 0.0 | 0.00 | 0.33 | 0.00 | 100 | 1014.6 |
| 20260903080917 | 22 | 118 | 0.0 | 0.0 | 0.00 | 0.33 | 0.00 | 100 | 1014.8 |
| 20260903075415 | 22 | 118 | 0.0 | 0.0 | 0.00 | 0.33 | 0.00 | 100 | 1014.8 |
| 20260903073914 | 22 | 118 | 0.0 | 0.0 | 0.00 | 0.33 | 0.00 | 100 | 1015.0 |
| 20260903072410 | 22 | 118 | 0.0 | 0.0 | 0.00 | 0.33 | 0.00 | 100 | 1014.9 |
| 20260903070853 | 22 | 118 | 0.0 | 0.0 | 0.00 | 0.33 | 0.00 | 100 | 1014.9 |
| 20260903065351 | 22 | 117 | 0.0 | 0.0 | 0.00 | 0.33 | 0.00 | 100 | 1014.8 |
| 20260903063842 | 22 | 117 | 0.0 | 3.2 | 0.00 | 0.33 | 0.00 | 100 | 1014.9 |
| 20260903062332 | 22 | 159 | 0.0 | 1.6 | 0.00 | 0.33 | 0.00 | 100 | 1014.9 |
| 20260903060809 | 22 | 171 | 0.0 | 4.8 | 0.00 | 0.33 | 0.00 | 100 | 1014.9 |
| 20260903055308 | 22 | 77 | 0.0 | 0.0 | 0.00 | 0.33 | 0.00 | 100 | 1015.2 |
| 20260903053804 | 22 | 77 | 0.0 | 0.0 | 0.00 | 0.33 | 0.00 | 100 | 1015.2 |
| 20260903052306 | 22 | 77 | 0.0 | 0.0 | 0.00 | 0.33 | 0.00 | 100 | 1015.2 |
| 20260903050754 | 22 | 77 | 0.0 | 0.0 | 0.00 | 0.33 | 0.00 | 100 | 1015.3 |
| 20260903045250 | 23 | 77 | 0.0 | 0.0 | 0.00 | 0.33 | 0.00 | 100 | 1015.4 |
| 20260903043742 | 22 | 77 | 0.0 | 0.0 | 0.00 | 0.33 | 0.00 | 100 | 1015.4 |
| 20260903042236 | 22 | 77 | 0.0 | 0.0 | 0.00 | 0.33 | 0.00 | 100 | 1015.6 |
| 20260903040732 | 23 | 77 | 0.0 | 0.0 | 0.00 | 0.33 | 0.00 | 100 | 1015.4 |
| 20260903035230 | 23 | 77 | 0.0 | 0.0 | 0.00 | 0.33 | 0.33 | 100 | 1015.6 |
| 20260903033647 | 23 | 77 | 0.0 | 0.0 | 0.00 | 0.33 | 0.33 | 100 | 1015.6 |
| 20260903032138 | 23 | 77 | 0.0 | 0.0 | 0.00 | 0.33 | 0.33 | 100 | 1015.9 |
| 20260903031338 | 23 | 77 | 0.0 | 6.4 | 0.00 | 0.33 | 0.33 | 100 | 1015.6 |
| 20260903025132 | 23 | 101 | 0.0 | 3.2 | 0.00 | 0.33 | 0.33 | 100 | 1015.6 |
| 20260903023628 | 23 | 102 | 0.0 | 1.6 | 0.00 | 0.33 | 0.33 | 100 | 1015.5 |
| 20260903022127 | 23 | 202 | 0.0 | 0.0 | 0.00 | 0.33 | 0.33 | 100 | 1015.2 |